DAL982 KATL-SKBO

Flight info

Callsign DAL982
Flight time N/A
Altitude 33000
Route VRSTY3 NOKIE YANTI Q89 SHRKS DEBRL Q97 TOVAR Y297 URSUS UP406 PUTUL/N0476F330 UP406 SUDSA AKPEK RNG ISVAT ISVAT5E
Aircraft B739/M-SDE2E3FGHIRWXY/LB1

Departure

Time N/A
Airport Hartsfield Jackson Atlanta International Airport (KATL)

Arrival

Time 2026-05-05 17:46
Airport El Dorado International Airport (SKBO)
Time Latitude Longitude Altitude Speed Heading
2026-05-05 16:08 14.80511 -77.15955 35004 ft 483 kts 171°
2026-05-05 16:09 14.73945 -77.14625 35000 ft 483 kts 171°
2026-05-05 16:09 14.67343 -77.13289 35001 ft 483 kts 171°
2026-05-05 16:10 14.60724 -77.11951 34999 ft 484 kts 171°
2026-05-05 16:10 14.54116 -77.10617 34997 ft 484 kts 171°
2026-05-05 16:11 14.47549 -77.09291 34993 ft 484 kts 171°
2026-05-05 16:12 14.34326 -77.06624 34993 ft 484 kts 171°
2026-05-05 16:13 14.17858 -77.03306 34994 ft 484 kts 171°
2026-05-05 16:13 14.11251 -77.01977 34991 ft 484 kts 171°
2026-05-05 16:14 13.98015 -76.99316 34989 ft 483 kts 171°
2026-05-05 16:15 13.85958 -76.96894 34983 ft 483 kts 171°
2026-05-05 16:16 13.74545 -76.94605 34979 ft 483 kts 171°
2026-05-05 16:17 13.64685 -76.92629 34980 ft 482 kts 171°
2026-05-05 16:18 13.54797 -76.90648 34980 ft 482 kts 171°
2026-05-05 16:19 13.44919 -76.88672 34977 ft 482 kts 171°
2026-05-05 16:19 13.35033 -76.86695 34972 ft 482 kts 171°
2026-05-05 16:20 13.21866 -76.84066 34969 ft 481 kts 171°
2026-05-05 16:22 13.05456 -76.80794 34957 ft 481 kts 171°
2026-05-05 16:23 12.92364 -76.78187 34965 ft 480 kts 171°
2026-05-05 16:23 12.85535 -76.76827 34964 ft 480 kts 171°
2026-05-05 16:24 12.78972 -76.75519 34961 ft 480 kts 171°
2026-05-05 16:25 12.69138 -76.73562 34963 ft 479 kts 171°
2026-05-05 16:25 12.59355 -76.71618 34959 ft 479 kts 171°
2026-05-05 16:26 12.46236 -76.69015 34960 ft 479 kts 171°
2026-05-05 16:27 12.39691 -76.67717 34956 ft 479 kts 171°
2026-05-05 16:27 12.33177 -76.66426 34954 ft 479 kts 171°
2026-05-05 16:28 12.26627 -76.65128 34947 ft 479 kts 171°
2026-05-05 16:28 12.20058 -76.63827 34952 ft 480 kts 171°
2026-05-05 16:29 12.13505 -76.62530 34951 ft 480 kts 170°
2026-05-05 16:29 12.06990 -76.61240 34943 ft 480 kts 171°
2026-05-05 16:30 12.00438 -76.59945 34938 ft 479 kts 170°
2026-05-05 16:30 11.96054 -76.59078 34949 ft 479 kts 170°
2026-05-05 16:31 11.90554 -76.57992 34946 ft 479 kts 171°
2026-05-05 16:31 11.84016 -76.56702 34943 ft 478 kts 170°
2026-05-05 16:32 11.77476 -76.55410 34936 ft 478 kts 170°
2026-05-05 16:32 11.70956 -76.54123 34946 ft 477 kts 171°
2026-05-05 16:33 11.64438 -76.52838 34942 ft 476 kts 171°
2026-05-05 16:33 11.57967 -76.51562 34933 ft 476 kts 170°
2026-05-05 16:34 11.51461 -76.50280 34938 ft 475 kts 170°
2026-05-05 16:34 11.44972 -76.49002 34938 ft 475 kts 170°
2026-05-05 16:35 11.38476 -76.47724 34934 ft 475 kts 170°
2026-05-05 16:35 11.31981 -76.46446 34934 ft 475 kts 170°
2026-05-05 16:36 11.25492 -76.45170 34927 ft 474 kts 170°
2026-05-05 16:36 11.19011 -76.43896 34933 ft 474 kts 170°
2026-05-05 16:37 11.12524 -76.42622 34932 ft 474 kts 170°
2026-05-05 16:37 11.06077 -76.41356 34927 ft 474 kts 170°
2026-05-05 16:38 11.01737 -76.40504 34932 ft 475 kts 170°
2026-05-05 16:38 10.96228 -76.39422 34933 ft 474 kts 170°
2026-05-05 16:39 10.89780 -76.38157 34922 ft 474 kts 170°
2026-05-05 16:39 10.83296 -76.36886 34926 ft 474 kts 170°
2026-05-05 16:40 10.76825 -76.35618 34926 ft 473 kts 170°
2026-05-05 16:40 10.70362 -76.34351 34924 ft 473 kts 170°
2026-05-05 16:41 10.63907 -76.33087 34919 ft 472 kts 170°
2026-05-05 16:41 10.57449 -76.31823 34913 ft 472 kts 170°
2026-05-05 16:42 10.50990 -76.30559 34923 ft 472 kts 170°
2026-05-05 16:42 10.44574 -76.29305 34921 ft 472 kts 170°
2026-05-05 16:43 10.38114 -76.28042 34917 ft 472 kts 170°
2026-05-05 16:43 10.31640 -76.26777 34922 ft 472 kts 170°
2026-05-05 16:44 10.25182 -76.25515 34921 ft 472 kts 170°
2026-05-05 16:44 10.18760 -76.24261 34920 ft 472 kts 169°
2026-05-05 16:45 10.12304 -76.23001 34917 ft 472 kts 169°
2026-05-05 16:45 10.08027 -76.22167 34922 ft 472 kts 169°
2026-05-05 16:46 10.02410 -76.21072 34915 ft 472 kts 169°
2026-05-05 16:46 9.95969 -76.19816 34919 ft 471 kts 169°
2026-05-05 16:47 9.89530 -76.18561 34922 ft 471 kts 169°
2026-05-05 16:47 9.83102 -76.17308 34918 ft 470 kts 169°
2026-05-05 16:48 9.76721 -76.16066 34917 ft 470 kts 169°
2026-05-05 16:48 9.70307 -76.14817 34918 ft 469 kts 169°
2026-05-05 16:49 9.63895 -76.13570 34922 ft 469 kts 169°
2026-05-05 16:49 9.57478 -76.12322 34920 ft 468 kts 169°
2026-05-05 16:50 9.51076 -76.11077 34918 ft 468 kts 169°
2026-05-05 16:50 9.44672 -76.09832 34919 ft 468 kts 169°
2026-05-05 16:51 9.38312 -76.08596 34922 ft 468 kts 169°
2026-05-05 16:51 9.31920 -76.07355 34921 ft 467 kts 169°
2026-05-05 16:52 9.25527 -76.06114 34924 ft 467 kts 169°
2026-05-05 16:52 9.19128 -76.04872 34924 ft 467 kts 169°
2026-05-05 16:53 9.15926 -76.04251 34922 ft 467 kts 169°
2026-05-05 16:53 9.09349 -76.02975 34921 ft 467 kts 169°
2026-05-05 16:54 9.02955 -76.01736 34913 ft 467 kts 169°
2026-05-05 16:54 8.96571 -76.00498 34919 ft 467 kts 169°
2026-05-05 16:55 8.90179 -75.99260 34916 ft 467 kts 169°
2026-05-05 16:55 8.84875 -75.98233 34913 ft 467 kts 169°
2026-05-05 16:56 8.78493 -75.96997 34914 ft 467 kts 169°
2026-05-05 16:56 8.72110 -75.95761 34917 ft 466 kts 169°
2026-05-05 16:57 8.65773 -75.94535 34921 ft 466 kts 169°
2026-05-05 16:57 8.59405 -75.93303 34916 ft 466 kts 169°
2026-05-05 16:58 8.53035 -75.92072 34918 ft 465 kts 169°
2026-05-05 16:58 8.46673 -75.90842 34919 ft 465 kts 169°
2026-05-05 16:59 8.40321 -75.89615 34913 ft 464 kts 169°
2026-05-05 16:59 8.33965 -75.88387 34914 ft 464 kts 169°
2026-05-05 17:00 8.27672 -75.87172 34910 ft 463 kts 169°
2026-05-05 17:00 8.23439 -75.86354 34917 ft 463 kts 169°
2026-05-05 17:01 8.18144 -75.85332 34920 ft 462 kts 169°
2026-05-05 17:01 8.11830 -75.84114 34924 ft 462 kts 169°
2026-05-05 17:02 8.05496 -75.82892 34923 ft 463 kts 169°
2026-05-05 17:02 7.99156 -75.81669 34920 ft 464 kts 169°
2026-05-05 17:03 7.92858 -75.80431 34925 ft 464 kts 168°
2026-05-05 17:03 7.86516 -75.79162 34928 ft 464 kts 168°
2026-05-05 17:04 7.80175 -75.77895 34929 ft 464 kts 168°
2026-05-05 17:04 7.73834 -75.76631 34936 ft 464 kts 168°
2026-05-05 17:05 7.67497 -75.75371 34941 ft 464 kts 168°
2026-05-05 17:05 7.61158 -75.74110 34953 ft 464 kts 168°
2026-05-05 17:06 7.54845 -75.72855 34964 ft 464 kts 168°
2026-05-05 17:06 7.48490 -75.71592 34966 ft 465 kts 168°
2026-05-05 17:07 7.42145 -75.70331 34971 ft 464 kts 168°
2026-05-05 17:07 7.35845 -75.69080 34976 ft 464 kts 168°
2026-05-05 17:08 7.31607 -75.68238 34980 ft 463 kts 168°
2026-05-05 17:08 7.26263 -75.67177 34993 ft 463 kts 168°
2026-05-05 17:09 7.19945 -75.65923 35002 ft 463 kts 168°
2026-05-05 17:09 7.13651 -75.64674 35008 ft 463 kts 168°
2026-05-05 17:10 7.07330 -75.63420 35001 ft 463 kts 168°
2026-05-05 17:10 7.01006 -75.62165 35026 ft 463 kts 168°
2026-05-05 17:11 6.94672 -75.60910 35020 ft 465 kts 168°
2026-05-05 17:11 6.88312 -75.59649 35033 ft 465 kts 168°
2026-05-05 17:12 6.81946 -75.58387 35032 ft 467 kts 168°
2026-05-05 17:12 6.75608 -75.57131 35037 ft 468 kts 168°
2026-05-05 17:13 6.69209 -75.55864 35040 ft 468 kts 168°
2026-05-05 17:13 6.62814 -75.54598 35041 ft 469 kts 168°
2026-05-05 17:14 6.56389 -75.53326 35041 ft 469 kts 168°
2026-05-05 17:14 6.49976 -75.52057 35077 ft 469 kts 168°
2026-05-05 17:15 6.43563 -75.50788 35105 ft 469 kts 168°
2026-05-05 17:15 6.39314 -75.49947 35128 ft 469 kts 168°
2026-05-05 17:16 6.33817 -75.48860 35146 ft 469 kts 168°
2026-05-05 17:16 6.27404 -75.47592 35314 ft 469 kts 168°
2026-05-05 17:17 6.20992 -75.46324 35347 ft 469 kts 168°
2026-05-05 17:17 6.14625 -75.45066 35344 ft 469 kts 168°
2026-05-05 17:18 6.08220 -75.43800 35353 ft 468 kts 168°
2026-05-05 17:18 6.01823 -75.42468 35122 ft 471 kts 162°
2026-05-05 17:19 5.98782 -75.41248 34848 ft 471 kts 151°
2026-05-05 17:19 5.95995 -75.39529 34604 ft 469 kts 142°
2026-05-05 17:19 5.93560 -75.37368 34355 ft 467 kts 134°
2026-05-05 17:19 5.91300 -75.35016 34104 ft 468 kts 133°
2026-05-05 17:20 5.89056 -75.32641 33815 ft 469 kts 133°
2026-05-05 17:20 5.86799 -75.30266 33535 ft 470 kts 133°
2026-05-05 17:20 5.84529 -75.27902 33102 ft 470 kts 133°
2026-05-05 17:20 5.82269 -75.25572 32166 ft 473 kts 134°
2026-05-05 17:21 5.79957 -75.23203 31311 ft 474 kts 134°
2026-05-05 17:21 5.77632 -75.20826 30373 ft 477 kts 134°
2026-05-05 17:21 5.75303 -75.18443 29282 ft 480 kts 134°
2026-05-05 17:22 5.70600 -75.13662 27180 ft 482 kts 136°
2026-05-05 17:22 5.67862 -75.11698 26059 ft 487 kts 152°
2026-05-05 17:22 5.64772 -75.10408 25265 ft 485 kts 157°
2026-05-05 17:22 5.61637 -75.09183 24452 ft 482 kts 157°
2026-05-05 17:23 5.58521 -75.07952 23660 ft 479 kts 156°
2026-05-05 17:23 5.55169 -75.06601 22749 ft 474 kts 156°
2026-05-05 17:23 5.52145 -75.05364 22300 ft 460 kts 156°
2026-05-05 17:24 5.49224 -75.04161 22039 ft 444 kts 156°
2026-05-05 17:24 5.46447 -75.03015 21844 ft 428 kts 156°
2026-05-05 17:24 5.43739 -75.01897 21642 ft 414 kts 156°
2026-05-05 17:24 5.41122 -75.00819 21485 ft 399 kts 155°
2026-05-05 17:25 5.38588 -74.99777 21313 ft 387 kts 155°
2026-05-05 17:25 5.36941 -74.99093 21004 ft 385 kts 155°
2026-05-05 17:25 5.33661 -74.97704 20404 ft 380 kts 155°
2026-05-05 17:25 5.31224 -74.96664 19945 ft 378 kts 154°
2026-05-05 17:26 5.28811 -74.95636 19492 ft 375 kts 155°
2026-05-05 17:26 5.26407 -74.94615 19027 ft 374 kts 155°
2026-05-05 17:26 5.24048 -74.93616 18571 ft 372 kts 155°
2026-05-05 17:26 5.21710 -74.92520 18072 ft 368 kts 144°
2026-05-05 17:27 5.19813 -74.90844 17606 ft 361 kts 126°
2026-05-05 17:27 5.18485 -74.88743 17309 ft 351 kts 118°
2026-05-05 17:27 5.17327 -74.86634 17160 ft 339 kts 118°
2026-05-05 17:27 5.16202 -74.84602 17038 ft 327 kts 118°
2026-05-05 17:28 5.15099 -74.82654 17002 ft 314 kts 119°
2026-05-05 17:28 5.14011 -74.80780 16999 ft 309 kts 119°
2026-05-05 17:28 5.13073 -74.78851 16996 ft 308 kts 104°
2026-05-05 17:28 5.12917 -74.76715 17004 ft 310 kts 82°
2026-05-05 17:29 5.13550 -74.74651 17011 ft 314 kts 63°
2026-05-05 17:29 5.14841 -74.72893 17015 ft 319 kts 47°
2026-05-05 17:29 5.16453 -74.71351 17009 ft 321 kts 44°
2026-05-05 17:29 5.18109 -74.69844 17005 ft 321 kts 44°
2026-05-05 17:30 5.19726 -74.68361 16994 ft 317 kts 45°
2026-05-05 17:30 5.21328 -74.66864 16998 ft 313 kts 45°
2026-05-05 17:30 5.22920 -74.65363 17001 ft 314 kts 45°
2026-05-05 17:31 5.24638 -74.63665 16997 ft 314 kts 54°
2026-05-05 17:31 5.25672 -74.61761 17019 ft 310 kts 70°
2026-05-05 17:31 5.26434 -74.59735 17015 ft 311 kts 71°
2026-05-05 17:31 5.27164 -74.57711 17019 ft 312 kts 71°
2026-05-05 17:32 5.27908 -74.55656 17009 ft 314 kts 71°
2026-05-05 17:32 5.28663 -74.53610 17019 ft 313 kts 71°
2026-05-05 17:32 5.29426 -74.51564 17027 ft 313 kts 70°
2026-05-05 17:32 5.30193 -74.49517 17027 ft 314 kts 70°
2026-05-05 17:33 5.30900 -74.47447 17001 ft 312 kts 79°
2026-05-05 17:33 5.31004 -74.45288 17031 ft 310 kts 94°
2026-05-05 17:33 5.30815 -74.43132 17033 ft 310 kts 95°
2026-05-05 17:33 5.30615 -74.40975 17032 ft 311 kts 95°
2026-05-05 17:34 5.30430 -74.38816 17023 ft 310 kts 95°
2026-05-05 17:34 5.30249 -74.36657 17042 ft 310 kts 96°
2026-05-05 17:34 5.29644 -74.34596 17044 ft 310 kts 118°
2026-05-05 17:34 5.28286 -74.32926 17057 ft 313 kts 140°
2026-05-05 17:35 5.26365 -74.31865 16903 ft 323 kts 162°
2026-05-05 17:35 5.24155 -74.31614 16671 ft 328 kts 184°
2026-05-05 17:35 5.21923 -74.32120 16452 ft 328 kts 194°
2026-05-05 17:35 5.19745 -74.32793 16195 ft 327 kts 195°
2026-05-05 17:36 5.17588 -74.33486 15951 ft 324 kts 195°
2026-05-05 17:36 5.15455 -74.34166 15721 ft 318 kts 194°
2026-05-05 17:36 5.13359 -74.34823 15502 ft 314 kts 194°
2026-05-05 17:36 5.11277 -74.35467 15270 ft 312 kts 194°
2026-05-05 17:37 5.09212 -74.36100 15019 ft 309 kts 194°
2026-05-05 17:37 5.07853 -74.36514 14911 ft 307 kts 194°
2026-05-05 17:37 5.05103 -74.37352 14600 ft 310 kts 194°
2026-05-05 17:37 5.03043 -74.37980 14401 ft 310 kts 194°
2026-05-05 17:38 5.00961 -74.38614 14155 ft 313 kts 194°
2026-05-05 17:38 4.98704 -74.39302 13935 ft 312 kts 194°
2026-05-05 17:38 4.96665 -74.39926 13902 ft 301 kts 194°
2026-05-05 17:39 4.94693 -74.40528 13813 ft 291 kts 193°
2026-05-05 17:39 4.92775 -74.41051 13733 ft 278 kts 182°
2026-05-05 17:39 4.90931 -74.40853 13674 ft 259 kts 158°
2026-05-05 17:39 4.89399 -74.40020 13601 ft 246 kts 140°
2026-05-05 17:40 4.88111 -74.38956 13578 ft 233 kts 139°
2026-05-05 17:40 4.86920 -74.37898 13209 ft 231 kts 131°
2026-05-05 17:40 4.85918 -74.36690 12876 ft 223 kts 127°
2026-05-05 17:40 4.85014 -74.35493 12608 ft 207 kts 126°
2026-05-05 17:41 4.84183 -74.34379 12374 ft 190 kts 126°
2026-05-05 17:41 4.83427 -74.33370 12093 ft 170 kts 126°
2026-05-05 17:41 4.82754 -74.32475 11963 ft 159 kts 126°
2026-05-05 17:41 4.82075 -74.31572 11768 ft 163 kts 126°
2026-05-05 17:42 4.81392 -74.30660 11571 ft 163 kts 126°
2026-05-05 17:42 4.80707 -74.29751 11366 ft 162 kts 127°
2026-05-05 17:42 4.80040 -74.28865 11182 ft 158 kts 127°
2026-05-05 17:42 4.79372 -74.27979 11004 ft 161 kts 127°
2026-05-05 17:43 4.78693 -74.27076 10821 ft 163 kts 127°
2026-05-05 17:43 4.78010 -74.26168 10628 ft 161 kts 127°
2026-05-05 17:43 4.77341 -74.25278 10454 ft 158 kts 127°
2026-05-05 17:43 4.76661 -74.24379 10303 ft 169 kts 126°
2026-05-05 17:44 4.76181 -74.23736 10129 ft 177 kts 127°
2026-05-05 17:44 4.75454 -74.22770 9909 ft 169 kts 127°
2026-05-05 17:44 4.74549 -74.21567 9598 ft 154 kts 126°
2026-05-05 17:44 4.74122 -74.21001 9488 ft 157 kts 127°
2026-05-05 17:45 4.73432 -74.20083 9247 ft 169 kts 128°
2026-05-05 17:45 4.72723 -74.19141 9022 ft 168 kts 129°
2026-05-05 17:45 4.72032 -74.18218 8741 ft 161 kts 129°
2026-05-05 17:45 4.71391 -74.17355 8499 ft 151 kts 130°
2026-05-05 17:46 4.70763 -74.16533 8373 ft 142 kts 128°
2026-05-05 17:46 4.70254 -74.15862 8370 ft 100 kts 127°
2026-05-05 17:46 4.69926 -74.15425 8372 ft 57 kts 127°
2026-05-05 17:46 4.69768 -74.15198 8371 ft 33 kts 113°
2026-05-05 17:47 4.69731 -74.15101 8371 ft 7 kts 108°
2026-05-05 17:47 4.69721 -74.15048 8370 ft 9 kts 96°
2026-05-05 17:47 4.69714 -74.14973 8369 ft 13 kts 95°
2026-05-05 17:47 4.69712 -74.14877 8369 ft 15 kts 76°
2026-05-05 17:48 4.69784 -74.14793 8369 ft 16 kts 38°
2026-05-05 17:48 4.69830 -74.14758 8369 ft 9 kts 37°
2026-05-05 17:48 4.69843 -74.14681 8369 ft 11 kts 86°
2026-05-05 17:48 4.69848 -74.14641 8369 ft 0 kts 80°
2026-05-05 17:49 4.69844 -74.14634 8369 ft 3 kts 131°
2026-05-05 17:49 4.69823 -74.14633 8369 ft 3 kts 167°
2026-05-05 17:49 4.69817 -74.14620 8369 ft 2 kts 90°
2026-05-05 17:49 4.69820 -74.14608 8369 ft 2 kts 69°
2026-05-05 17:50 4.69822 -74.14603 8369 ft 0 kts 68°
2026-05-05 17:50 4.69825 -74.14596 8369 ft 0 kts 67°